Starlink 32617

operational
NORAD ID: 62076 Int'l Des: 2024-217 Owner: SPXS Country: US Constellation: starlink
LEOCIRCULAR

关于 Starlink 32617

正在加载描述...

实时位置

正在加载3D地球...

即将过境

高度历史

Altitude vs Time

uPlot chart will show altitude changes over time

两行轨道根数

1 62076U 24217V 25351.33283517 .00018470 00000-0 63412-3 0 9994
2 62076 53.1583 203.5462 0001444 93.2563 266.8603 15.30203136 60990
Epoch: Dec 17, 2025 • Age: 19 hours

当前状态

高度 476.0 km
速度 7.63 km/s
星下点 27.71°N, 91.65°E
发射日期 Nov 24, 2024
运行时间 1 years
类型 internet

技术详情

分类 Payload
质量 730.00 kg
干质量 700.00 kg
总质量 730.00 kg
长度 0.30 m
直径 4.10 m
跨度 29.00 m
形状 Box + pan
制造商 SPXS
平台类型 Starlink V2M
阶段状态 In Orbit
所有者/国家 SPXS/US

大型星座

Loading constellations...